TimeMST,TemperatureF,Dew PointF,Humidity,Sea Level PressureIn,VisibilityMPH,Wind Direction,Wind SpeedMPH,Gust SpeedMPH,PrecipitationIn,Events,Conditions,WindDirDegrees,DateUTC
12:15 AM,34.0,23.0,64,30.49,10.0,Calm,Calm,-,N/A,,Clear,0,2013-03-02 07:15:00
12:35 AM,30.9,21.9,69,30.49,10.0,Calm,Calm,-,N/A,,Clear,0,2013-03-02 07:35:00
12:55 AM,27.7,21.4,77,30.49,10.0,Calm,Calm,-,N/A,,Clear,0,2013-03-02 07:55:00
1:15 AM,29.5,22.6,76,30.49,10.0,Calm,Calm,-,N/A,,Clear,0,2013-03-02 08:15:00
1:35 AM,29.5,22.6,76,30.49,10.0,Calm,Calm,-,N/A,,Clear,0,2013-03-02 08:35:00
2:15 AM,31.3,22.1,69,30.49,10.0,NE,5.8,-,N/A,,Clear,50,2013-03-02 09:15:00
2:35 AM,29.5,21.7,73,30.49,10.0,East,3.5,-,N/A,,Clear,100,2013-03-02 09:35:00
2:55 AM,27.3,20.7,76,30.49,10.0,ENE,5.8,-,N/A,,Clear,60,2013-03-02 09:55:00
3:15 AM,27.5,20.5,75,30.48,10.0,NE,5.8,-,N/A,,Clear,40,2013-03-02 10:15:00
3:35 AM,28.2,21.6,76,30.49,10.0,NE,5.8,-,N/A,,Clear,50,2013-03-02 10:35:00
3:55 AM,27.1,21.0,78,30.49,10.0,NNE,3.5,-,N/A,,Clear,20,2013-03-02 10:55:00
4:15 AM,27.3,21.0,77,30.48,10.0,East,4.6,-,N/A,,Clear,80,2013-03-02 11:15:00
4:55 AM,26.4,20.3,78,30.49,10.0,NE,4.6,-,N/A,,Clear,50,2013-03-02 11:55:00
5:35 AM,26.4,20.3,78,30.49,10.0,ENE,6.9,-,N/A,,Clear,60,2013-03-02 12:35:00
5:55 AM,27.1,20.8,77,30.50,10.0,ENE,5.8,-,N/A,,Clear,70,2013-03-02 12:55:00
6:15 AM,26.6,20.3,77,30.50,10.0,Calm,Calm,-,N/A,,Clear,0,2013-03-02 13:15:00
6:35 AM,25.2,19.4,79,30.51,10.0,Calm,Calm,-,N/A,,Clear,0,2013-03-02 13:35:00
6:55 AM,25.2,20.3,82,30.52,10.0,Calm,Calm,-,N/A,,Clear,0,2013-03-02 13:55:00
7:15 AM,25.9,20.3,79,30.52,10.0,East,3.5,-,N/A,,Clear,80,2013-03-02 14:15:00
7:35 AM,28.6,21.7,76,30.52,10.0,Calm,Calm,-,N/A,,Clear,0,2013-03-02 14:35:00
7:55 AM,29.8,21.7,72,30.53,10.0,Calm,Calm,-,N/A,,Clear,0,2013-03-02 14:55:00
8:15 AM,31.8,21.9,67,30.53,10.0,East,3.5,-,N/A,,Clear,80,2013-03-02 15:15:00
8:35 AM,33.3,22.6,65,30.53,10.0,Calm,Calm,-,N/A,,Clear,0,2013-03-02 15:35:00
8:55 AM,34.5,22.1,61,30.53,10.0,Calm,Calm,-,N/A,,Clear,0,2013-03-02 15:55:00
9:15 AM,35.8,22.6,59,30.52,10.0,Calm,Calm,-,N/A,,Clear,0,2013-03-02 16:15:00
9:35 AM,36.9,22.8,57,30.51,10.0,Calm,Calm,-,N/A,,Clear,0,2013-03-02 16:35:00
9:55 AM,38.5,23.0,54,30.51,10.0,Calm,Calm,-,N/A,,Clear,0,2013-03-02 16:55:00
10:15 AM,40.6,23.2,50,30.49,10.0,Calm,Calm,-,N/A,,Clear,0,2013-03-02 17:15:00
10:35 AM,42.3,24.3,49,30.49,10.0,Calm,Calm,-,N/A,,Clear,0,2013-03-02 17:35:00
10:55 AM,43.7,23.9,46,30.48,10.0,Calm,Calm,-,N/A,,Clear,0,2013-03-02 17:55:00
11:15 AM,45.7,24.3,43,30.47,10.0,NNE,3.5,-,N/A,,Clear,30,2013-03-02 18:15:00
11:35 AM,47.3,24.1,40,30.46,10.0,Calm,Calm,-,N/A,,Clear,0,2013-03-02 18:35:00
11:55 AM,48.2,23.5,38,30.44,10.0,Calm,Calm,-,N/A,,Clear,0,2013-03-02 18:55:00
12:15 PM,49.8,23.2,35,30.43,10.0,SE,3.5,-,N/A,,Clear,130,2013-03-02 19:15:00
12:35 PM,50.7,23.7,35,30.41,10.0,Calm,Calm,-,N/A,,Clear,0,2013-03-02 19:35:00
12:55 PM,53.2,23.7,32,30.40,10.0,SE,3.5,-,N/A,,Clear,140,2013-03-02 19:55:00
1:15 PM,54.5,23.5,30,30.38,10.0,ESE,3.5,-,N/A,,Clear,110,2013-03-02 20:15:00
1:35 PM,54.9,23.4,30,30.36,10.0,Calm,Calm,-,N/A,,Clear,0,2013-03-02 20:35:00
1:55 PM,56.1,22.8,28,30.35,10.0,Calm,Calm,-,N/A,,Clear,0,2013-03-02 20:55:00
2:15 PM,57.0,22.6,26,30.34,10.0,Calm,Calm,-,N/A,,Clear,0,2013-03-02 21:15:00
2:35 PM,57.4,22.8,26,30.33,10.0,NE,5.8,-,N/A,,Clear,40,2013-03-02 21:35:00
2:55 PM,57.9,21.7,25,30.32,10.0,Calm,Calm,-,N/A,,Clear,0,2013-03-02 21:55:00
3:15 PM,59.4,21.6,23,30.31,10.0,East,4.6,-,N/A,,Clear,90,2013-03-02 22:15:00
3:35 PM,59.0,22.1,24,30.30,10.0,East,4.6,-,N/A,,Clear,100,2013-03-02 22:35:00
3:55 PM,58.6,22.1,24,30.29,10.0,ESE,3.5,-,N/A,,Clear,110,2013-03-02 22:55:00
4:15 PM,58.1,21.9,25,30.28,10.0,East,3.5,-,N/A,,Clear,80,2013-03-02 23:15:00
4:55 PM,58.5,21.0,24,30.27,10.0,SSE,4.6,-,N/A,,Clear,150,2013-03-02 23:55:00
5:15 PM,58.3,21.2,24,30.27,10.0,South,4.6,-,N/A,,Clear,170,2013-03-03 00:15:00
5:35 PM,57.6,21.0,24,30.26,10.0,Calm,Calm,-,N/A,,Clear,0,2013-03-03 00:35:00
5:55 PM,56.3,21.2,26,30.26,10.0,Calm,Calm,-,N/A,,Clear,0,2013-03-03 00:55:00
6:15 PM,54.3,21.4,28,30.26,10.0,Calm,Calm,-,N/A,,Clear,0,2013-03-03 01:15:00
6:35 PM,52.0,22.1,31,30.26,10.0,Calm,Calm,-,N/A,,Clear,0,2013-03-03 01:35:00
6:55 PM,48.7,22.5,36,30.26,10.0,NW,3.5,-,N/A,,Clear,310,2013-03-03 01:55:00
7:15 PM,47.3,21.9,37,30.26,10.0,NNW,4.6,-,N/A,,Clear,330,2013-03-03 02:15:00
7:35 PM,44.1,23.4,44,30.25,10.0,North,5.8,-,N/A,,Clear,10,2013-03-03 02:35:00
7:55 PM,43.5,23.7,46,30.25,10.0,NNE,8.1,-,N/A,,Clear,30,2013-03-03 02:55:00
8:15 PM,45.1,23.5,43,30.25,10.0,Calm,Calm,-,N/A,,Clear,0,2013-03-03 03:15:00
8:35 PM,39.7,23.4,52,30.25,10.0,Calm,Calm,-,N/A,,Clear,0,2013-03-03 03:35:00
8:55 PM,40.1,25.0,55,30.26,10.0,East,5.8,-,N/A,,Clear,80,2013-03-03 03:55:00
9:15 PM,38.5,23.9,56,30.25,10.0,NE,6.9,-,N/A,,Clear,40,2013-03-03 04:15:00
9:35 PM,39.6,25.2,56,30.25,10.0,NE,8.1,-,N/A,,Clear,50,2013-03-03 04:35:00
9:55 PM,41.0,27.5,59,30.24,10.0,East,6.9,-,N/A,,Clear,90,2013-03-03 04:55:00
10:15 PM,40.1,27.7,61,30.24,10.0,East,3.5,-,N/A,,Clear,90,2013-03-03 05:15:00
10:35 PM,38.1,27.3,65,30.23,10.0,Calm,Calm,-,N/A,,Clear,0,2013-03-03 05:35:00
10:55 PM,38.7,26.1,61,30.23,10.0,Calm,Calm,-,N/A,,Clear,0,2013-03-03 05:55:00
11:15 PM,39.0,24.6,56,30.22,10.0,ENE,4.6,-,N/A,,Clear,60,2013-03-03 06:15:00
11:35 PM,38.3,23.9,56,30.21,10.0,ENE,5.8,-,N/A,,Clear,70,2013-03-03 06:35:00
11:55 PM,37.4,25.0,61,30.20,10.0,ENE,6.9,-,N/A,,Clear,70,2013-03-03 06:55:00